Location: Newark
(40.9833°N, 0.0333°W)
Time: 02:15:36
(UTC+00:00)

deb Explorer IX - Pass Details

Date: 27 October 2020
Orbit: 537 x 1105 km, 38.8° (Epoch: 02 December)

Event Time Altitude Azimuth Distance (km) Brightness Sun altitude
Rises 05:33:01 0° 231° (SW) 3,371 - -10.5°
Exits shadow 05:33:07 - 230° (SW) 3,340 ? -10.5°
Reaches altitude 10° 05:35:30 10° 224° (SW) 2,525 ? -10.0°
Maximum altitude 05:41:15 43° 155° (SSE) 1,331 ? -9.0°
Drops below altitude 10° 05:47:46 10° 86° (E) 2,865 ? -7.7°
Sets 05:50:45 0° 80° (E) 3,870 ? -7.2°
